NOAA 16 DEB, 41205

Orbit data source: Space-Track

NOAA 16 DEB, 41205 is space debris in SSO originally from a launch on Thu, 21 Sep 2000 UTC launched from the Air Force Western Test Range (AFWTR). Debris objects in space refer to the collection of defunct objects orbiting the Earth. Examples of debris include non-operational satellites, rocket bodies, and fragments generated from explosions, collisions, or faulty payload assembly.

Loading next visibility...
Identifier
41205, 2000-055DJ
Orbit
SSO
Country
Flag of USUS
Related business
Manufacturer
Unknown
Mission
Spacecraft
Bus & Motor
Unknown
Mass
Unknown
Launch date (UTC)
2000-09-21 (25 years ago)
Launch vehicle
Unknown
Launch site
Air Force Western Test Range (AFWTR)
Object type
Payload
Rocket body
Debris
Shape & HBR
Unknown shape, 0.1 m
Radar Cross Section
Small (<0.1 m²)

Expand to show TLE details & history
Last TLE update: 1 day ago

TLE from 1 day ago
0 NOAA 16 DEB
1 41205U 00055DJ  25298.97225508  .00029857  00000-0  52911-2 0  9997
2 41205  98.9589 120.0565 0012556  53.7671 306.4689 14.67153650512539
Epoch: 2025-10-25T23:20Z
TLE epoch observation values (Epoch: 2025-10-25T23:20:02.838Z)
Latitude
-0.00008°
Longitude
95.44955°
Altitude
667.886 km
Speed
7.526 km/s
True Right ascension
08h 00m 13s
True Declination
0° 00' 00"
Sunlit
Object was in daylight at epoch
Visualization orbit readout
Latitude
Unknown
Longitude
Unknown
Altitude
Unknown
Speed
Unknown
Apparent Right ascension
Unknown
Apparent Declination
Unknown
Sunlit
N/A
Visualization observer readout
Local Sidereal Time
01:12:48
Azimuth
Unknown
Elevation
Unknown
Doppler factor
Unknown
Orbital elements
Apogee altitude
676.124 km
Perigee altitude
658.431 km
Semi-major axis
7,045.415 km
Eccentricity
0.00126
Inclination
98.9589°
RAAN
120.0565°
Arg. of periapsis
53.7671°
True anomaly
306.35309°
Mean anomaly
306.4689°
Eccentric anomaly
306.411°
Mean motion
3.67015 °/min
Orbital period
98.09 mins
BSTAR
0.0052911
Loading maneuver chart data...
Computing Atmospheric mass density...
Loading historical data...
Loading historical data...
Loading historical data...
Loading historical data...
Loading historical data...
Loading historical data...
Loading historical data...

Documentation

Showing up to 5 results
|